Regional Weather Roundup
Issued by NWS

Home | Current Version | Previous Version | Text Only | Print | Product List | Glossary Off
Versions: 1 2 3 4 5 6 7 8 9 10 11 12 13 14 15 16 17 18 19 20 21 22 23 24 25 26 27 28 29 30 31 32 33 34 35 36 37 38 39 40 41 42 43 44 45 46 47 48 49 50

000
ASUS43 KLMK 281510
RWRKY
KENTUCKY REGIONAL WEATHER ROUNDUP
NATIONAL WEATHER SERVICE LOUISVILLE KY
1100 AM EDT THU MAY 28 2015

NOTE "FAIR" INDICATES FEW OR NO CLOUDS BELOW 12,000 FEET
WITH NO SIGNIFICANT WEATHER AND/OR OBSTRUCTIONS TO VISIBILITY.

KYZ001>023-026-027-061>063-070>075-281600-
WESTERN AND SOUTH CENTRAL KENTUCKY

CITY           SKY/WX    TMP DP  RH WIND       PRES   REMARKS
PADUCAH        MOSUNNY   76  65  68 SE5       30.17S
HENDERSON      MOSUNNY   75  68  78 CALM      30.17F
OWENSBORO      PTSUNNY   76  68  76 VRB5      30.20F
HOPKINSVILLE   PTSUNNY   73  66  78 SE6       30.20F
BOWLING GREEN  CLOUDY    76  65  68 E3        30.22F
GLASGOW        PTSUNNY   72  65  78 CALM      30.23S
$$

KYZ024-025-028>034-038-045-046-053-281600-
NORTH CENTRAL KENTUCKY

CITY           SKY/WX    TMP DP  RH WIND       PRES   REMARKS
LOUISVILLE/SDF CLOUDY    72  66  81 CALM      30.21S HAZE
LOUISVILLE/LOU CLOUDY    72  66  81 CALM      30.22R
FORT KNOX      LGT RAIN  68  68 100 E5        30.21R
$$

KYZ035>037-039>044-047>052-055>060-089>105-281600-
NORTHEAST KENTUCKY

CITY           SKY/WX    TMP DP  RH WIND       PRES   REMARKS
LEXINGTON      CLOUDY    71  66  84 VRB3      30.24S
COVINGTON      CLOUDY    70  64  83 E3        30.23S HAZE
FRANKFORT      CLOUDY    68  64  87 CALM      30.23R
$$

KYZ054-064>069-076>088-106>120-281600-
SOUTHEAST KENTUCKY

CITY           SKY/WX    TMP DP  RH WIND       PRES   REMARKS
JACKSON        CLOUDY    72  63  73 CALM      30.26R
LONDON         CLOUDY    70  62  76 CALM      30.26S
SOMERSET       CLOUDY    70  66  88 CALM      30.26F
MIDDLESBORO    PTSUNNY   73  68  84 CALM      30.26S
MONTICELLO     CLOUDY    73  67  81 CALM      30.28S
$$



USA.gov is the U.S. government's official web portal to all federal, state and local government web resources and services.